Time,TemperatureF,DewpointF,PressureIn,WindDirection,WindDirectionDegrees,WindSpeedMPH,WindSpeedGustMPH,Humidity,HourlyPrecipIn,Conditions,Clouds,dailyrainin,SoftwareType,DateUTC
2013-12-11 00:10:00,17.4,11.9,30.29,North,0,0.0,0.0,79,0.00,,,0.00,WUHU21623XXSP,2013-12-11 06:10:00,
2013-12-11 00:15:00,17.4,11.9,30.29,North,0,0.0,0.0,79,0.00,,,0.00,WUHU21623XXSP,2013-12-11 06:15:00,
2013-12-11 00:20:00,17.4,11.9,30.28,North,0,0.0,0.0,79,0.00,,,0.00,WUHU21623XXSP,2013-12-11 06:20:00,
2013-12-11 00:25:00,17.4,11.9,30.28,North,0,0.0,0.0,79,0.00,,,0.00,WUHU21623XXSP,2013-12-11 06:25:00,
2013-12-11 00:30:00,17.4,11.9,30.28,North,0,0.0,0.0,79,0.00,,,0.00,WUHU21623XXSP,2013-12-11 06:30:00,
2013-12-11 00:35:00,17.4,12.0,30.27,North,0,0.0,0.0,79,0.00,,,0.00,WUHU21623XXSP,2013-12-11 06:35:00,
2013-12-11 00:40:00,17.4,12.0,30.27,North,0,0.0,0.0,79,0.00,,,0.00,WUHU21623XXSP,2013-12-11 06:40:00,
2013-12-11 00:48:00,17.2,12.1,30.27,North,0,0.0,0.0,80,0.00,,,0.00,WUHU21623XXSP,2013-12-11 06:48:00,
2013-12-11 00:53:00,17.2,12.1,30.27,North,0,0.0,0.0,80,0.00,,,0.00,WUHU21623XXSP,2013-12-11 06:53:00,
2013-12-11 00:58:00,17.4,12.2,30.27,North,0,0.0,0.0,80,0.00,,,0.00,WUHU21623XXSP,2013-12-11 06:58:00,
2013-12-11 01:03:00,17.4,12.2,30.27,North,0,0.0,0.0,80,0.00,,,0.00,WUHU21623XXSP,2013-12-11 07:03:00,
2013-12-11 01:08:00,17.8,12.4,30.27,North,0,0.0,0.0,80,0.00,,,0.00,WUHU21623XXSP,2013-12-11 07:08:00,
2013-12-11 01:13:00,17.8,12.6,30.27,North,0,0.0,0.0,80,0.00,,,0.00,WUHU21623XXSP,2013-12-11 07:13:00,
2013-12-11 01:18:00,18.0,12.6,30.27,North,0,0.0,0.0,80,0.00,,,0.00,WUHU21623XXSP,2013-12-11 07:18:00,
2013-12-11 01:23:00,18.0,12.7,30.27,North,0,0.0,0.0,80,0.00,,,0.00,WUHU21623XXSP,2013-12-11 07:23:00,
2013-12-11 01:28:00,18.1,12.9,30.27,North,0,0.0,0.0,80,0.00,,,0.00,WUHU21623XXSP,2013-12-11 07:28:00,
2013-12-11 01:33:00,18.1,12.9,30.27,North,0,0.0,0.0,80,0.00,,,0.00,WUHU21623XXSP,2013-12-11 07:33:00,
2013-12-11 01:38:00,18.1,12.9,30.27,North,0,0.0,0.0,80,0.00,,,0.00,WUHU21623XXSP,2013-12-11 07:38:00,
2013-12-11 01:43:00,18.0,12.7,30.27,North,0,0.0,0.0,80,0.00,,,0.00,WUHU21623XXSP,2013-12-11 07:43:00,
2013-12-11 01:48:00,18.0,12.7,30.27,North,0,0.0,0.0,80,0.00,,,0.00,WUHU21623XXSP,2013-12-11 07:48:00,
2013-12-11 01:53:00,18.1,12.9,30.27,North,0,0.0,0.0,80,0.00,,,0.00,WUHU21623XXSP,2013-12-11 07:53:00,
2013-12-11 01:58:00,18.1,12.9,30.27,North,0,0.0,0.0,80,0.00,,,0.00,WUHU21623XXSP,2013-12-11 07:58:00,
2013-12-11 02:03:00,18.1,12.9,30.27,North,0,0.0,0.0,80,0.00,,,0.00,WUHU21623XXSP,2013-12-11 08:03:00,
2013-12-11 02:08:00,18.1,12.9,30.27,North,0,0.0,0.0,80,0.00,,,0.00,WUHU21623XXSP,2013-12-11 08:08:00,
2013-12-11 02:13:00,18.3,13.1,30.27,North,0,0.0,0.0,80,0.00,,,0.00,WUHU21623XXSP,2013-12-11 08:13:00,
2013-12-11 02:18:00,18.3,13.1,30.27,North,0,0.0,0.0,80,0.00,,,0.00,WUHU21623XXSP,2013-12-11 08:18:00,
2013-12-11 02:23:00,18.3,13.1,30.28,North,0,0.0,0.0,80,0.00,,,0.00,WUHU21623XXSP,2013-12-11 08:23:00,
2013-12-11 02:28:00,18.5,13.1,30.28,North,0,0.0,0.0,80,0.00,,,0.00,WUHU21623XXSP,2013-12-11 08:28:00,
2013-12-11 02:33:00,18.5,13.3,30.28,North,0,0.0,0.0,80,0.00,,,0.00,WUHU21623XXSP,2013-12-11 08:33:00,
2013-12-11 02:38:00,18.7,13.5,30.28,North,0,0.0,0.0,80,0.00,,,0.00,WUHU21623XXSP,2013-12-11 08:38:00,
2013-12-11 02:43:00,18.7,13.5,30.28,North,0,0.0,0.0,80,0.00,,,0.00,WUHU21623XXSP,2013-12-11 08:43:00,
2013-12-11 02:48:00,18.9,13.6,30.28,North,0,0.0,0.0,80,0.00,,,0.00,WUHU21623XXSP,2013-12-11 08:48:00,
2013-12-11 02:53:00,18.9,13.6,30.28,North,0,0.0,0.0,80,0.00,,,0.00,WUHU21623XXSP,2013-12-11 08:53:00,
2013-12-11 02:58:00,19.0,13.6,30.28,North,0,0.0,0.0,80,0.00,,,0.00,WUHU21623XXSP,2013-12-11 08:58:00,
2013-12-11 03:03:00,19.0,13.8,30.28,North,0,0.0,0.0,80,0.00,,,0.00,WUHU21623XXSP,2013-12-11 09:03:00,
2013-12-11 03:08:00,19.0,13.8,30.29,North,0,0.0,0.0,80,0.00,,,0.00,WUHU21623XXSP,2013-12-11 09:08:00,
2013-12-11 03:13:00,19.0,13.8,30.28,North,0,0.0,0.0,80,0.00,,,0.00,WUHU21623XXSP,2013-12-11 09:13:00,
2013-12-11 03:18:00,18.9,13.3,30.28,North,0,0.0,0.0,79,0.00,,,0.00,WUHU21623XXSP,2013-12-11 09:18:00,
2013-12-11 03:23:00,18.9,13.3,30.28,North,0,0.0,0.0,79,0.00,,,0.00,WUHU21623XXSP,2013-12-11 09:23:00,
2013-12-11 03:28:00,18.7,13.2,30.28,North,0,0.0,0.0,79,0.00,,,0.00,WUHU21623XXSP,2013-12-11 09:28:00,
2013-12-11 03:33:00,18.9,13.2,30.28,North,0,0.0,0.0,80,0.00,,,0.00,WUHU21623XXSP,2013-12-11 09:33:00,
2013-12-11 03:38:00,18.9,13.6,30.28,North,0,0.0,0.0,80,0.00,,,0.00,WUHU21623XXSP,2013-12-11 09:38:00,
2013-12-11 03:43:00,19.2,14.0,30.28,North,0,0.0,0.0,80,0.00,,,0.00,WUHU21623XXSP,2013-12-11 09:43:00,
2013-12-11 03:48:00,19.2,14.0,30.28,North,0,0.0,0.0,80,0.00,,,0.00,WUHU21623XXSP,2013-12-11 09:48:00,
2013-12-11 03:53:00,19.6,14.2,30.28,North,0,0.0,0.0,80,0.00,,,0.00,WUHU21623XXSP,2013-12-11 09:53:00,
2013-12-11 03:58:00,19.6,14.4,30.28,North,0,0.0,0.0,80,0.00,,,0.00,WUHU21623XXSP,2013-12-11 09:58:00,
2013-12-11 04:03:00,19.6,14.4,30.28,North,0,0.0,0.0,80,0.00,,,0.00,WUHU21623XXSP,2013-12-11 10:03:00,
2013-12-11 04:08:00,19.6,14.4,30.28,North,0,0.0,0.0,80,0.00,,,0.00,WUHU21623XXSP,2013-12-11 10:08:00,
2013-12-11 04:13:00,20.5,15.0,30.28,North,0,0.0,0.0,79,0.00,,,0.00,WUHU21623XXSP,2013-12-11 10:13:00,
2013-12-11 04:18:00,20.8,15.3,30.28,North,0,0.0,0.0,79,0.00,,,0.00,WUHU21623XXSP,2013-12-11 10:18:00,
2013-12-11 04:23:00,21.0,15.5,30.28,North,0,0.0,0.0,79,0.00,,,0.00,WUHU21623XXSP,2013-12-11 10:23:00,
2013-12-11 04:28:00,21.6,16.0,30.29,North,0,0.0,0.0,79,0.00,,,0.00,WUHU21623XXSP,2013-12-11 10:28:00,
2013-12-11 04:33:00,21.9,16.2,30.29,North,0,0.0,0.0,79,0.00,,,0.00,WUHU21623XXSP,2013-12-11 10:33:00,
2013-12-11 04:38:00,22.3,16.4,30.29,North,0,0.0,0.0,78,0.00,,,0.00,WUHU21623XXSP,2013-12-11 10:38:00,
2013-12-11 04:43:00,22.6,16.8,30.29,North,0,0.0,0.0,78,0.00,,,0.00,WUHU21623XXSP,2013-12-11 10:43:00,
2013-12-11 04:48:00,22.8,16.8,30.29,North,0,0.0,0.0,78,0.00,,,0.00,WUHU21623XXSP,2013-12-11 10:48:00,
2013-12-11 04:53:00,22.8,16.7,30.29,North,0,0.0,0.0,77,0.00,,,0.00,WUHU21623XXSP,2013-12-11 10:53:00,
2013-12-11 04:58:00,23.4,17.0,30.30,North,0,0.0,0.0,77,0.00,,,0.00,WUHU21623XXSP,2013-12-11 10:58:00,
2013-12-11 05:03:00,23.5,17.4,30.30,North,0,0.0,0.0,77,0.00,,,0.00,WUHU21623XXSP,2013-12-11 11:03:00,
2013-12-11 05:08:00,23.5,17.4,30.30,North,0,0.0,0.0,77,0.00,,,0.00,WUHU21623XXSP,2013-12-11 11:08:00,
2013-12-11 05:13:00,23.7,17.2,30.31,North,0,0.0,0.0,76,0.00,,,0.00,WUHU21623XXSP,2013-12-11 11:13:00,
2013-12-11 05:18:00,23.9,17.4,30.31,North,0,0.0,0.0,76,0.00,,,0.00,WUHU21623XXSP,2013-12-11 11:18:00,
2013-12-11 05:23:00,23.9,17.1,30.31,North,0,0.0,0.0,75,0.00,,,0.00,WUHU21623XXSP,2013-12-11 11:23:00,
2013-12-11 05:28:00,23.9,17.1,30.31,North,0,0.0,0.0,75,0.00,,,0.00,WUHU21623XXSP,2013-12-11 11:28:00,
2013-12-11 05:33:00,23.9,17.1,30.31,North,0,0.0,0.0,75,0.00,,,0.00,WUHU21623XXSP,2013-12-11 11:33:00,
2013-12-11 05:38:00,23.9,17.1,30.32,North,0,0.0,0.0,75,0.00,,,0.00,WUHU21623XXSP,2013-12-11 11:38:00,
2013-12-11 05:43:00,23.9,17.1,30.32,North,0,0.0,0.0,75,0.00,,,0.00,WUHU21623XXSP,2013-12-11 11:43:00,
2013-12-11 05:48:00,24.1,17.3,30.32,North,0,0.0,0.0,75,0.00,,,0.00,WUHU21623XXSP,2013-12-11 11:48:00,
2013-12-11 05:53:00,24.1,17.0,30.33,North,0,0.0,0.0,74,0.00,,,0.00,WUHU21623XXSP,2013-12-11 11:53:00,
2013-12-11 05:58:00,24.1,17.0,30.32,North,0,0.0,0.0,74,0.00,,,0.00,WUHU21623XXSP,2013-12-11 11:58:00,
2013-12-11 06:03:00,24.3,17.1,30.33,North,0,0.0,0.0,74,0.00,,,0.00,WUHU21623XXSP,2013-12-11 12:03:00,
2013-12-11 06:08:00,24.4,17.3,30.33,North,0,0.0,0.0,74,0.00,,,0.00,WUHU21623XXSP,2013-12-11 12:08:00,
2013-12-11 06:13:00,24.4,17.0,30.33,North,0,0.0,0.0,73,0.00,,,0.00,WUHU21623XXSP,2013-12-11 12:13:00,
2013-12-11 06:18:00,24.4,17.0,30.33,North,0,0.0,0.0,73,0.00,,,0.00,WUHU21623XXSP,2013-12-11 12:18:00,
2013-12-11 06:23:00,24.4,17.0,30.33,North,0,0.0,0.0,73,0.00,,,0.00,WUHU21623XXSP,2013-12-11 12:23:00,
2013-12-11 06:28:00,24.4,17.0,30.34,North,0,0.0,0.0,73,0.00,,,0.00,WUHU21623XXSP,2013-12-11 12:28:00,
2013-12-11 06:33:00,24.4,17.0,30.34,North,0,0.0,0.0,73,0.00,,,0.00,WUHU21623XXSP,2013-12-11 12:33:00,
2013-12-11 06:38:00,24.4,17.0,30.35,North,0,0.0,0.0,73,0.00,,,0.00,WUHU21623XXSP,2013-12-11 12:38:00,
2013-12-11 06:43:00,24.4,17.0,30.35,North,0,0.0,0.0,73,0.00,,,0.00,WUHU21623XXSP,2013-12-11 12:43:00,
2013-12-11 06:48:00,24.3,17.0,30.36,North,0,0.0,0.0,73,0.00,,,0.00,WUHU21623XXSP,2013-12-11 12:48:00,
2013-12-11 06:53:00,24.1,17.0,30.36,North,0,0.0,0.0,74,0.00,,,0.00,WUHU21623XXSP,2013-12-11 12:53:00,
2013-12-11 06:58:00,24.1,16.6,30.36,North,0,0.0,0.0,74,0.00,,,0.00,WUHU21623XXSP,2013-12-11 12:58:00,
2013-12-11 07:03:00,24.1,17.0,30.37,North,0,0.0,0.0,74,0.00,,,0.00,WUHU21623XXSP,2013-12-11 13:03:00,
2013-12-11 07:08:00,24.1,17.0,30.37,North,0,0.0,0.0,74,0.00,,,0.00,WUHU21623XXSP,2013-12-11 13:08:00,
2013-12-11 07:13:00,24.1,17.0,30.37,North,0,0.0,0.0,74,0.00,,,0.00,WUHU21623XXSP,2013-12-11 13:13:00,
2013-12-11 07:18:00,24.1,17.0,30.37,North,0,0.0,0.0,74,0.00,,,0.00,WUHU21623XXSP,2013-12-11 13:18:00,
2013-12-11 07:23:00,24.1,17.3,30.38,North,0,0.0,0.0,75,0.00,,,0.00,WUHU21623XXSP,2013-12-11 13:23:00,
2013-12-11 07:28:00,24.1,17.3,30.38,North,0,0.0,0.0,75,0.00,,,0.00,WUHU21623XXSP,2013-12-11 13:28:00,
2013-12-11 07:33:00,24.1,17.3,30.39,North,0,0.0,0.0,75,0.00,,,0.00,WUHU21623XXSP,2013-12-11 13:33:00,
2013-12-11 07:38:00,24.1,17.3,30.39,North,0,0.0,0.0,75,0.00,,,0.00,WUHU21623XXSP,2013-12-11 13:38:00,
2013-12-11 07:43:00,24.1,17.3,30.40,North,0,0.0,0.0,75,0.00,,,0.00,WUHU21623XXSP,2013-12-11 13:43:00,
2013-12-11 07:48:00,24.4,17.6,30.40,North,0,0.0,0.0,75,0.00,,,0.00,WUHU21623XXSP,2013-12-11 13:48:00,
2013-12-11 07:53:00,24.4,17.6,30.40,North,0,0.0,0.0,75,0.00,,,0.00,WUHU21623XXSP,2013-12-11 13:53:00,
2013-12-11 07:58:00,24.4,17.6,30.41,North,0,0.0,0.0,75,0.00,,,0.00,WUHU21623XXSP,2013-12-11 13:58:00,
2013-12-11 08:03:00,24.6,17.8,30.41,North,0,0.0,0.0,75,0.00,,,0.00,WUHU21623XXSP,2013-12-11 14:03:00,
2013-12-11 08:08:00,25.0,18.1,30.42,North,0,0.0,0.0,75,0.00,,,0.00,WUHU21623XXSP,2013-12-11 14:08:00,
2013-12-11 08:13:00,25.0,18.1,30.42,North,0,0.0,0.0,75,0.00,,,0.00,WUHU21623XXSP,2013-12-11 14:13:00,
2013-12-11 08:18:00,25.0,18.1,30.43,North,0,0.0,0.0,75,0.00,,,0.00,WUHU21623XXSP,2013-12-11 14:18:00,
2013-12-11 08:23:00,25.3,18.6,30.44,North,0,0.0,0.0,76,0.00,,,0.00,WUHU21623XXSP,2013-12-11 14:23:00,
2013-12-11 08:28:00,25.5,18.9,30.44,North,0,0.0,0.0,76,0.00,,,0.00,WUHU21623XXSP,2013-12-11 14:28:00,
2013-12-11 08:33:00,25.7,18.9,30.44,North,0,0.0,0.0,76,0.00,,,0.00,WUHU21623XXSP,2013-12-11 14:33:00,
2013-12-11 08:38:00,26.2,19.6,30.45,North,0,0.0,0.0,76,0.00,,,0.00,WUHU21623XXSP,2013-12-11 14:38:00,
2013-12-11 08:43:00,26.2,19.6,30.45,North,0,0.0,0.0,76,0.00,,,0.00,WUHU21623XXSP,2013-12-11 14:43:00,
2013-12-11 08:48:00,26.4,19.8,30.46,North,0,0.0,0.0,76,0.00,,,0.00,WUHU21623XXSP,2013-12-11 14:48:00,
2013-12-11 08:53:00,26.8,20.2,30.46,North,0,0.0,0.0,76,0.00,,,0.00,WUHU21623XXSP,2013-12-11 14:53:00,
2013-12-11 08:58:00,27.1,20.3,30.46,North,0,0.0,0.0,76,0.00,,,0.00,WUHU21623XXSP,2013-12-11 14:58:00,
2013-12-11 09:03:00,27.1,20.5,30.47,North,0,0.0,0.0,76,0.00,,,0.00,WUHU21623XXSP,2013-12-11 15:03:00,
2013-12-11 09:08:00,27.1,19.9,30.48,North,0,0.0,0.0,74,0.00,,,0.00,WUHU21623XXSP,2013-12-11 15:08:00,
2013-12-11 09:13:00,27.1,19.6,30.48,North,0,0.0,0.0,73,0.00,,,0.00,WUHU21623XXSP,2013-12-11 15:13:00,
2013-12-11 09:18:00,27.1,19.6,30.49,North,0,0.0,0.0,73,0.00,,,0.00,WUHU21623XXSP,2013-12-11 15:18:00,
2013-12-11 09:23:00,27.0,19.1,30.49,North,0,0.0,0.0,72,0.00,,,0.00,WUHU21623XXSP,2013-12-11 15:23:00,
2013-12-11 09:28:00,26.8,18.8,30.49,North,0,0.0,0.0,71,0.00,,,0.00,WUHU21623XXSP,2013-12-11 15:28:00,
2013-12-11 09:33:00,26.8,18.6,30.50,North,0,0.0,0.0,71,0.00,,,0.00,WUHU21623XXSP,2013-12-11 15:33:00,
2013-12-11 09:38:00,26.8,18.6,30.50,North,0,0.0,0.0,71,0.00,,,0.00,WUHU21623XXSP,2013-12-11 15:38:00,
2013-12-11 09:43:00,26.8,18.6,30.51,North,0,0.0,0.0,71,0.00,,,0.00,WUHU21623XXSP,2013-12-11 15:43:00,
2013-12-11 09:48:00,26.8,18.3,30.51,North,0,0.0,0.0,70,0.00,,,0.00,WUHU21623XXSP,2013-12-11 15:48:00,
2013-12-11 09:53:00,26.8,18.3,30.52,North,0,0.0,0.0,70,0.00,,,0.00,WUHU21623XXSP,2013-12-11 15:53:00,
2013-12-11 09:58:00,26.8,18.3,30.52,North,0,0.0,0.0,70,0.00,,,0.00,WUHU21623XXSP,2013-12-11 15:58:00,
2013-12-11 10:03:00,27.0,18.1,30.52,North,0,0.0,0.0,69,0.00,,,0.00,WUHU21623XXSP,2013-12-11 16:03:00,
2013-12-11 10:08:00,27.1,18.3,30.52,North,0,0.0,0.0,69,0.00,,,0.00,WUHU21623XXSP,2013-12-11 16:08:00,
2013-12-11 10:13:00,27.1,18.3,30.53,North,0,0.0,0.0,69,0.00,,,0.00,WUHU21623XXSP,2013-12-11 16:13:00,
2013-12-11 10:18:00,27.3,18.5,30.53,North,0,0.0,0.0,69,0.00,,,0.00,WUHU21623XXSP,2013-12-11 16:18:00,
2013-12-11 10:23:00,27.5,18.3,30.53,North,0,0.0,0.0,68,0.00,,,0.00,WUHU21623XXSP,2013-12-11 16:23:00,
2013-12-11 10:28:00,27.7,18.5,30.53,North,0,0.0,0.0,68,0.00,,,0.00,WUHU21623XXSP,2013-12-11 16:28:00,
2013-12-11 10:33:00,27.7,18.5,30.53,North,0,0.0,0.0,68,0.00,,,0.00,WUHU21623XXSP,2013-12-11 16:33:00,
2013-12-11 10:38:00,27.1,17.6,30.53,North,0,0.0,0.0,67,0.00,,,0.00,WUHU21623XXSP,2013-12-11 16:38:00,
2013-12-11 10:43:00,27.0,17.4,30.54,North,0,0.0,0.0,67,0.00,,,0.00,WUHU21623XXSP,2013-12-11 16:43:00,
2013-12-11 10:48:00,27.0,17.4,30.54,North,0,0.0,0.0,67,0.00,,,0.00,WUHU21623XXSP,2013-12-11 16:48:00,
2013-12-11 10:53:00,26.6,16.7,30.54,North,0,0.0,0.0,66,0.00,,,0.00,WUHU21623XXSP,2013-12-11 16:53:00,
2013-12-11 10:58:00,26.6,16.7,30.54,North,0,0.0,0.0,66,0.00,,,0.00,WUHU21623XXSP,2013-12-11 16:58:00,
2013-12-11 11:03:00,26.8,17.2,30.54,North,0,0.0,0.0,67,0.00,,,0.00,WUHU21623XXSP,2013-12-11 17:03:00,
2013-12-11 11:08:00,27.3,17.8,30.54,North,0,0.0,0.0,67,0.00,,,0.00,WUHU21623XXSP,2013-12-11 17:08:00,
2013-12-11 11:13:00,27.3,17.4,30.54,North,0,0.0,0.0,66,0.00,,,0.00,WUHU21623XXSP,2013-12-11 17:13:00,
2013-12-11 11:18:00,27.1,17.4,30.54,North,0,0.0,0.0,66,0.00,,,0.00,WUHU21623XXSP,2013-12-11 17:18:00,
2013-12-11 11:23:00,27.0,16.7,30.54,North,0,0.0,0.0,65,0.00,,,0.00,WUHU21623XXSP,2013-12-11 17:23:00,
2013-12-11 11:28:00,27.0,16.3,30.54,North,0,0.0,0.0,64,0.00,,,0.00,WUHU21623XXSP,2013-12-11 17:28:00,
2013-12-11 11:33:00,27.1,16.5,30.54,North,0,0.0,0.0,64,0.00,,,0.00,WUHU21623XXSP,2013-12-11 17:33:00,
2013-12-11 11:38:00,27.1,16.5,30.54,North,0,0.0,0.0,64,0.00,,,0.00,WUHU21623XXSP,2013-12-11 17:38:00,
2013-12-11 11:43:00,27.0,16.3,30.54,North,0,0.0,0.0,64,0.00,,,0.00,WUHU21623XXSP,2013-12-11 17:43:00,
2013-12-11 11:48:00,26.8,16.2,30.54,North,0,0.0,0.0,64,0.00,,,0.00,WUHU21623XXSP,2013-12-11 17:48:00,
2013-12-11 11:53:00,26.8,16.2,30.54,North,0,0.0,0.0,64,0.00,,,0.00,WUHU21623XXSP,2013-12-11 17:53:00,
2013-12-11 11:58:00,26.4,15.8,30.54,North,0,0.0,0.0,64,0.00,,,0.00,WUHU21623XXSP,2013-12-11 17:58:00,
2013-12-11 12:04:00,26.4,15.8,30.54,North,0,0.0,0.0,64,0.00,,,0.00,WUHU21623XXSP,2013-12-11 18:04:00,
2013-12-11 12:09:00,26.6,15.8,30.54,North,0,0.0,0.0,64,0.00,,,0.00,WUHU21623XXSP,2013-12-11 18:09:00,
2013-12-11 12:14:00,26.6,15.6,30.54,North,0,0.0,0.0,63,0.00,,,0.00,WUHU21623XXSP,2013-12-11 18:14:00,
2013-12-11 12:19:00,27.0,16.0,30.54,North,0,0.0,0.0,63,0.00,,,0.00,WUHU21623XXSP,2013-12-11 18:19:00,
2013-12-11 12:24:00,27.1,16.2,30.54,North,0,0.0,0.0,63,0.00,,,0.00,WUHU21623XXSP,2013-12-11 18:24:00,
2013-12-11 12:29:00,27.5,16.5,30.54,North,0,0.0,0.0,63,0.00,,,0.00,WUHU21623XXSP,2013-12-11 18:29:00,
2013-12-11 12:34:00,27.1,15.8,30.54,North,0,0.0,0.0,62,0.00,,,0.00,WUHU21623XXSP,2013-12-11 18:34:00,
2013-12-11 12:39:00,26.8,15.6,30.54,North,0,0.0,0.0,62,0.00,,,0.00,WUHU21623XXSP,2013-12-11 18:39:00,
2013-12-11 12:44:00,26.8,15.6,30.54,North,0,0.0,0.0,63,0.00,,,0.00,WUHU21623XXSP,2013-12-11 18:44:00,
2013-12-11 12:49:00,27.1,15.8,30.54,North,0,0.0,0.0,62,0.00,,,0.00,WUHU21623XXSP,2013-12-11 18:49:00,
2013-12-11 12:54:00,27.3,16.0,30.54,North,0,0.0,0.0,61,0.00,,,0.00,WUHU21623XXSP,2013-12-11 18:54:00,
2013-12-11 12:59:00,27.5,15.8,30.54,North,0,0.0,0.0,61,0.00,,,0.00,WUHU21623XXSP,2013-12-11 18:59:00,
2013-12-11 13:04:00,27.3,15.6,30.54,North,0,0.0,0.0,61,0.00,,,0.00,WUHU21623XXSP,2013-12-11 19:04:00,
2013-12-11 13:09:00,27.3,15.6,30.54,North,0,0.0,0.0,60,0.00,,,0.00,WUHU21623XXSP,2013-12-11 19:09:00,
2013-12-11 13:14:00,27.3,14.8,30.54,North,0,0.0,0.0,59,0.00,,,0.00,WUHU21623XXSP,2013-12-11 19:14:00,
2013-12-11 13:19:00,27.3,14.8,30.54,North,0,0.0,0.0,58,0.00,,,0.00,WUHU21623XXSP,2013-12-11 19:19:00,
2013-12-11 13:24:00,27.3,14.4,30.54,North,0,0.0,0.0,58,0.00,,,0.00,WUHU21623XXSP,2013-12-11 19:24:00,
2013-12-11 13:29:00,27.5,14.6,30.54,North,0,0.0,0.0,58,0.00,,,0.00,WUHU21623XXSP,2013-12-11 19:29:00,
2013-12-11 13:34:00,27.3,14.4,30.54,North,0,0.0,0.0,58,0.00,,,0.00,WUHU21623XXSP,2013-12-11 19:34:00,
2013-12-11 13:39:00,27.3,14.4,30.54,North,0,0.0,0.0,58,0.00,,,0.00,WUHU21623XXSP,2013-12-11 19:39:00,
2013-12-11 13:44:00,27.3,14.4,30.54,North,0,0.0,0.0,58,0.00,,,0.00,WUHU21623XXSP,2013-12-11 19:44:00,
2013-12-11 13:49:00,27.3,14.4,30.54,North,0,0.0,0.0,58,0.00,,,0.00,WUHU21623XXSP,2013-12-11 19:49:00,
2013-12-11 13:54:00,27.3,14.4,30.54,North,0,0.0,0.0,58,0.00,,,0.00,WUHU21623XXSP,2013-12-11 19:54:00,
2013-12-11 13:59:00,27.3,14.4,30.54,North,0,0.0,0.0,58,0.00,,,0.00,WUHU21623XXSP,2013-12-11 19:59:00,
2013-12-11 14:04:00,27.3,14.4,30.54,North,0,0.0,0.0,58,0.00,,,0.00,WUHU21623XXSP,2013-12-11 20:04:00,
2013-12-11 14:29:00,27.1,13.4,30.54,North,0,0.0,0.0,56,0.00,,,0.00,WUHU21623XXSP,2013-12-11 20:29:00,
2013-12-11 14:34:00,27.1,13.0,30.54,North,0,0.0,0.0,55,0.00,,,0.00,WUHU21623XXSP,2013-12-11 20:34:00,
2013-12-11 14:39:00,27.3,13.0,30.54,North,0,0.0,0.0,56,0.00,,,0.00,WUHU21623XXSP,2013-12-11 20:39:00,
2013-12-11 14:44:00,27.1,13.0,30.54,North,0,0.0,0.0,55,0.00,,,0.00,WUHU21623XXSP,2013-12-11 20:44:00,
2013-12-11 14:49:00,27.1,13.0,30.54,North,0,0.0,0.0,55,0.00,,,0.00,WUHU21623XXSP,2013-12-11 20:49:00,
2013-12-11 14:54:00,27.0,12.8,30.54,North,0,0.0,0.0,55,0.00,,,0.00,WUHU21623XXSP,2013-12-11 20:54:00,
2013-12-11 14:59:00,27.0,12.8,30.54,North,0,0.0,0.0,55,0.00,,,0.00,WUHU21623XXSP,2013-12-11 20:59:00,
2013-12-11 15:04:00,26.8,12.2,30.55,North,0,0.0,0.0,54,0.00,,,0.00,WUHU21623XXSP,2013-12-11 21:04:00,
2013-12-11 15:10:00,26.8,12.2,30.55,North,0,0.0,0.0,54,0.00,,,0.00,WUHU21623XXSP,2013-12-11 21:10:00,
2013-12-11 15:15:00,26.6,11.9,30.55,North,0,0.0,0.0,54,0.00,,,0.00,WUHU21623XXSP,2013-12-11 21:15:00,
2013-12-11 15:20:00,26.4,11.9,30.55,North,0,0.0,0.0,54,0.00,,,0.00,WUHU21623XXSP,2013-12-11 21:20:00,
2013-12-11 15:25:00,26.2,11.5,30.55,North,0,0.0,0.0,53,0.00,,,0.00,WUHU21623XXSP,2013-12-11 21:25:00,
2013-12-11 15:30:00,26.2,11.3,30.55,North,0,0.0,0.0,53,0.00,,,0.00,WUHU21623XXSP,2013-12-11 21:30:00,
2013-12-11 15:35:00,26.4,11.5,30.55,North,0,0.0,0.0,53,0.00,,,0.00,WUHU21623XXSP,2013-12-11 21:35:00,
2013-12-11 15:40:00,26.4,11.5,30.56,North,0,0.0,0.0,53,0.00,,,0.00,WUHU21623XXSP,2013-12-11 21:40:00,
2013-12-11 15:45:00,26.2,10.9,30.56,North,0,0.0,0.0,52,0.00,,,0.00,WUHU21623XXSP,2013-12-11 21:45:00,
2013-12-11 15:50:00,25.9,10.6,30.56,North,0,0.0,0.0,52,0.00,,,0.00,WUHU21623XXSP,2013-12-11 21:50:00,
2013-12-11 15:55:00,25.5,10.3,30.56,North,0,0.0,0.0,52,0.00,,,0.00,WUHU21623XXSP,2013-12-11 21:55:00,
2013-12-11 16:00:00,25.0,9.4,30.56,North,0,0.0,0.0,51,0.00,,,0.00,WUHU21623XXSP,2013-12-11 22:00:00,
2013-12-11 16:05:00,25.0,9.4,30.56,North,0,0.0,0.0,51,0.00,,,0.00,WUHU21623XXSP,2013-12-11 22:05:00,
2013-12-11 16:10:00,24.6,9.0,30.56,North,0,0.0,0.0,51,0.00,,,0.00,WUHU21623XXSP,2013-12-11 22:10:00,
2013-12-11 16:15:00,24.1,8.5,30.57,North,0,0.0,0.0,51,0.00,,,0.00,WUHU21623XXSP,2013-12-11 22:15:00,
2013-12-11 16:20:00,23.9,8.4,30.56,North,0,0.0,0.0,51,0.00,,,0.00,WUHU21623XXSP,2013-12-11 22:20:00,
2013-12-11 16:25:00,23.5,7.6,30.56,North,0,0.0,0.0,50,0.00,,,0.00,WUHU21623XXSP,2013-12-11 22:25:00,
2013-12-11 16:30:00,23.2,7.7,30.56,North,0,0.0,0.0,51,0.00,,,0.00,WUHU21623XXSP,2013-12-11 22:30:00,
2013-12-11 16:35:00,22.8,7.4,30.56,North,0,0.0,0.0,51,0.00,,,0.00,WUHU21623XXSP,2013-12-11 22:35:00,
2013-12-11 16:40:00,22.6,7.2,30.57,North,0,0.0,0.0,51,0.00,,,0.00,WUHU21623XXSP,2013-12-11 22:40:00,
2013-12-11 16:45:00,22.1,6.7,30.57,North,0,0.0,0.0,51,0.00,,,0.00,WUHU21623XXSP,2013-12-11 22:45:00,
2013-12-11 16:50:00,21.7,6.5,30.57,North,0,0.0,0.0,52,0.00,,,0.00,WUHU21623XXSP,2013-12-11 22:50:00,
2013-12-11 16:55:00,21.6,6.5,30.57,North,0,0.0,0.0,52,0.00,,,0.00,WUHU21623XXSP,2013-12-11 22:55:00,
2013-12-11 17:00:00,21.0,6.3,30.57,North,0,0.0,0.0,52,0.00,,,0.00,WUHU21623XXSP,2013-12-11 23:00:00,
2013-12-11 17:05:00,21.0,6.0,30.58,North,0,0.0,0.0,52,0.00,,,0.00,WUHU21623XXSP,2013-12-11 23:05:00,
2013-12-11 17:10:00,20.5,5.5,30.58,North,0,0.0,0.0,52,0.00,,,0.00,WUHU21623XXSP,2013-12-11 23:10:00,
2013-12-11 17:15:00,20.3,5.5,30.58,North,0,0.0,0.0,52,0.00,,,0.00,WUHU21623XXSP,2013-12-11 23:15:00,
2013-12-11 17:20:00,19.9,5.6,30.58,North,0,0.0,0.0,52,0.00,,,0.00,WUHU21623XXSP,2013-12-11 23:20:00,
2013-12-11 17:25:00,19.8,4.9,30.59,North,0,0.0,0.0,52,0.00,,,0.00,WUHU21623XXSP,2013-12-11 23:25:00,
2013-12-11 17:30:00,19.6,4.7,30.59,North,0,0.0,0.0,52,0.00,,,0.00,WUHU21623XXSP,2013-12-11 23:30:00,
2013-12-11 17:35:00,19.4,5.1,30.59,North,0,0.0,0.0,53,0.00,,,0.00,WUHU21623XXSP,2013-12-11 23:35:00,
2013-12-11 17:40:00,19.2,4.8,30.59,North,0,0.0,0.0,53,0.00,,,0.00,WUHU21623XXSP,2013-12-11 23:40:00,
2013-12-11 17:45:00,19.0,4.6,30.59,North,0,0.0,0.0,53,0.00,,,0.00,WUHU21623XXSP,2013-12-11 23:45:00,
2013-12-11 17:50:00,18.7,4.3,30.59,North,0,0.0,0.0,53,0.00,,,0.00,WUHU21623XXSP,2013-12-11 23:50:00,
2013-12-11 17:55:00,18.3,4.0,30.60,North,0,0.0,0.0,53,0.00,,,0.00,WUHU21623XXSP,2013-12-11 23:55:00,
2013-12-11 18:00:00,18.3,4.0,30.60,North,0,0.0,0.0,53,0.00,,,0.00,WUHU21623XXSP,2013-12-12 00:00:00,
2013-12-11 18:05:00,18.1,3.8,30.60,North,0,0.0,0.0,53,0.00,,,0.00,WUHU21623XXSP,2013-12-12 00:05:00,
2013-12-11 18:10:00,18.0,4.2,30.60,North,0,0.0,0.0,54,0.00,,,0.00,WUHU21623XXSP,2013-12-12 00:10:00,
2013-12-11 18:15:00,18.0,4.0,30.60,North,0,0.0,0.0,54,0.00,,,0.00,WUHU21623XXSP,2013-12-12 00:15:00,
2013-12-11 18:20:00,18.0,4.0,30.60,North,0,0.0,0.0,54,0.00,,,0.00,WUHU21623XXSP,2013-12-12 00:20:00,
2013-12-11 18:25:00,18.0,4.0,30.60,North,0,0.0,0.0,54,0.00,,,0.00,WUHU21623XXSP,2013-12-12 00:25:00,
2013-12-11 18:34:00,16.9,3.0,30.61,North,0,0.0,0.0,54,0.00,,,0.00,WUHU21623XXSP,2013-12-12 00:34:00,
2013-12-11 18:39:00,16.7,2.9,30.61,North,0,0.0,0.0,54,0.00,,,0.00,WUHU21623XXSP,2013-12-12 00:39:00,
2013-12-11 18:44:00,16.3,2.5,30.62,North,0,0.0,0.0,54,0.00,,,0.00,WUHU21623XXSP,2013-12-12 00:44:00,
2013-12-11 18:49:00,16.3,2.5,30.62,North,0,0.0,0.0,54,0.00,,,0.00,WUHU21623XXSP,2013-12-12 00:49:00,
2013-12-11 18:54:00,16.2,2.3,30.62,North,0,0.0,0.0,54,0.00,,,0.00,WUHU21623XXSP,2013-12-12 00:54:00,
2013-12-11 18:59:00,15.8,2.2,30.62,North,0,0.0,0.0,54,0.00,,,0.00,WUHU21623XXSP,2013-12-12 00:59:00,
2013-12-11 19:04:00,15.6,2.0,30.62,North,0,0.0,0.0,55,0.00,,,0.00,WUHU21623XXSP,2013-12-12 01:04:00,
2013-12-11 19:09:00,15.6,2.2,30.62,North,0,0.0,0.0,55,0.00,,,0.00,WUHU21623XXSP,2013-12-12 01:09:00,
2013-12-11 19:14:00,15.3,1.9,30.63,North,0,0.0,0.0,55,0.00,,,0.00,WUHU21623XXSP,2013-12-12 01:14:00,
2013-12-11 19:19:00,15.1,1.7,30.63,North,0,0.0,0.0,55,0.00,,,0.00,WUHU21623XXSP,2013-12-12 01:19:00,
2013-12-11 19:24:00,14.9,1.7,30.63,North,0,0.0,0.0,55,0.00,,,0.00,WUHU21623XXSP,2013-12-12 01:24:00,
2013-12-11 19:29:00,14.7,1.7,30.63,North,0,0.0,0.0,56,0.00,,,0.00,WUHU21623XXSP,2013-12-12 01:29:00,
2013-12-11 19:34:00,14.7,1.4,30.63,North,0,0.0,0.0,55,0.00,,,0.00,WUHU21623XXSP,2013-12-12 01:34:00,
2013-12-11 19:39:00,14.5,1.6,30.64,North,0,0.0,0.0,56,0.00,,,0.00,WUHU21623XXSP,2013-12-12 01:39:00,
2013-12-11 19:44:00,14.2,1.2,30.64,North,0,0.0,0.0,56,0.00,,,0.00,WUHU21623XXSP,2013-12-12 01:44:00,
2013-12-11 19:49:00,14.2,1.2,30.64,North,0,0.0,0.0,56,0.00,,,0.00,WUHU21623XXSP,2013-12-12 01:49:00,
2013-12-11 19:54:00,13.8,0.9,30.64,North,0,0.0,0.0,56,0.00,,,0.00,WUHU21623XXSP,2013-12-12 01:54:00,
2013-12-11 19:59:00,13.8,0.9,30.63,North,0,0.0,0.0,56,0.00,,,0.00,WUHU21623XXSP,2013-12-12 01:59:00,
2013-12-11 20:04:00,13.6,1.1,30.63,North,0,0.0,0.0,57,0.00,,,0.00,WUHU21623XXSP,2013-12-12 02:04:00,
2013-12-11 20:10:00,13.6,1.1,30.64,North,0,0.0,0.0,57,0.00,,,0.00,WUHU21623XXSP,2013-12-12 02:10:00,
2013-12-11 20:15:00,13.3,0.8,30.64,North,0,0.0,0.0,57,0.00,,,0.00,WUHU21623XXSP,2013-12-12 02:15:00,
2013-12-11 20:20:00,13.3,0.8,30.63,North,0,0.0,0.0,57,0.00,,,0.00,WUHU21623XXSP,2013-12-12 02:20:00,
2013-12-11 20:25:00,13.1,0.6,30.64,North,0,0.0,0.0,58,0.00,,,0.00,WUHU21623XXSP,2013-12-12 02:25:00,
2013-12-11 20:30:00,12.9,0.8,30.64,North,0,0.0,0.0,58,0.00,,,0.00,WUHU21623XXSP,2013-12-12 02:30:00,
2013-12-11 20:35:00,12.9,0.8,30.64,North,0,0.0,0.0,58,0.00,,,0.00,WUHU21623XXSP,2013-12-12 02:35:00,
2013-12-11 20:40:00,12.7,0.6,30.63,North,0,0.0,0.0,58,0.00,,,0.00,WUHU21623XXSP,2013-12-12 02:40:00,
2013-12-11 20:45:00,12.7,0.6,30.63,North,0,0.0,0.0,58,0.00,,,0.00,WUHU21623XXSP,2013-12-12 02:45:00,
2013-12-11 20:50:00,12.6,0.4,30.63,North,0,0.0,0.0,58,0.00,,,0.00,WUHU21623XXSP,2013-12-12 02:50:00,
2013-12-11 20:55:00,12.4,0.3,30.63,North,0,0.0,0.0,58,0.00,,,0.00,WUHU21623XXSP,2013-12-12 02:55:00,
2013-12-11 21:00:00,12.4,0.3,30.63,North,0,0.0,0.0,58,0.00,,,0.00,WUHU21623XXSP,2013-12-12 03:00:00,
2013-12-11 21:05:00,12.2,0.5,30.64,North,0,0.0,0.0,59,0.00,,,0.00,WUHU21623XXSP,2013-12-12 03:05:00,
2013-12-11 21:10:00,12.0,0.3,30.64,North,0,0.0,0.0,59,0.00,,,0.00,WUHU21623XXSP,2013-12-12 03:10:00,
2013-12-11 21:15:00,12.0,0.3,30.64,North,0,0.0,0.0,59,0.00,,,0.00,WUHU21623XXSP,2013-12-12 03:15:00,
2013-12-11 21:20:00,12.0,0.3,30.63,North,0,0.0,0.0,59,0.00,,,0.00,WUHU21623XXSP,2013-12-12 03:20:00,
2013-12-11 21:25:00,11.8,0.2,30.64,North,0,0.0,0.0,59,0.00,,,0.00,WUHU21623XXSP,2013-12-12 03:25:00,
2013-12-11 21:30:00,11.8,0.5,30.64,North,0,0.0,0.0,60,0.00,,,0.00,WUHU21623XXSP,2013-12-12 03:30:00,
2013-12-11 21:35:00,11.7,0.4,30.64,North,0,0.0,0.0,60,0.00,,,0.00,WUHU21623XXSP,2013-12-12 03:35:00,
2013-12-11 21:40:00,11.5,0.2,30.64,North,0,0.0,0.0,60,0.00,,,0.00,WUHU21623XXSP,2013-12-12 03:40:00,
2013-12-11 21:45:00,11.3,0.4,30.64,North,0,0.0,0.0,61,0.00,,,0.00,WUHU21623XXSP,2013-12-12 03:45:00,
2013-12-11 21:50:00,11.3,0.4,30.64,North,0,0.0,0.0,61,0.00,,,0.00,WUHU21623XXSP,2013-12-12 03:50:00,
2013-12-11 21:55:00,11.1,0.2,30.64,North,0,0.0,0.0,61,0.00,,,0.00,WUHU21623XXSP,2013-12-12 03:55:00,
2013-12-11 22:00:00,10.9,0.2,30.64,North,0,0.0,0.0,62,0.00,,,0.00,WUHU21623XXSP,2013-12-12 04:00:00,
2013-12-11 22:05:00,10.9,0.4,30.65,North,0,0.0,0.0,62,0.00,,,0.00,WUHU21623XXSP,2013-12-12 04:05:00,
2013-12-11 22:10:00,10.8,0.2,30.65,North,0,0.0,0.0,62,0.00,,,0.00,WUHU21623XXSP,2013-12-12 04:10:00,
2013-12-11 22:15:00,10.6,0.1,30.65,North,0,0.0,0.0,62,0.00,,,0.00,WUHU21623XXSP,2013-12-12 04:15:00,
2013-12-11 22:20:00,10.6,0.1,30.65,North,0,0.0,0.0,62,0.00,,,0.00,WUHU21623XXSP,2013-12-12 04:20:00,
2013-12-11 22:25:00,10.2,0.0,30.64,North,0,0.0,0.0,63,0.00,,,0.00,WUHU21623XXSP,2013-12-12 04:25:00,
2013-12-11 22:30:00,10.2,0.0,30.64,North,0,0.0,0.0,63,0.00,,,0.00,WUHU21623XXSP,2013-12-12 04:30:00,
2013-12-11 22:35:00,10.0,0.2,30.64,North,0,0.0,0.0,64,0.00,,,0.00,WUHU21623XXSP,2013-12-12 04:35:00,
2013-12-11 22:40:00,9.7,0.2,30.63,North,0,0.0,0.0,64,0.00,,,0.00,WUHU21623XXSP,2013-12-12 04:40:00,
2013-12-11 22:45:00,9.7,0.2,30.63,North,0,0.0,0.0,65,0.00,,,0.00,WUHU21623XXSP,2013-12-12 04:45:00,
2013-12-11 22:50:00,9.7,0.2,30.63,North,0,0.0,0.0,65,0.00,,,0.00,WUHU21623XXSP,2013-12-12 04:50:00,
2013-12-11 22:55:00,9.7,0.5,30.63,North,0,0.0,0.0,66,0.00,,,0.00,WUHU21623XXSP,2013-12-12 04:55:00,
2013-12-11 23:00:00,9.5,0.3,30.63,North,0,0.0,0.0,66,0.00,,,0.00,WUHU21623XXSP,2013-12-12 05:00:00,
2013-12-11 23:02:00,9.5,0.3,30.63,North,0,0.0,0.0,66,0.00,,,0.00,WUHU21623XXSP,2013-12-12 05:02:00,
2013-12-11 23:05:00,9.3,0.3,30.63,North,0,0.0,0.0,66,0.00,,,0.00,WUHU21623XXSP,2013-12-12 05:05:00,
2013-12-11 23:07:00,9.3,0.2,30.63,North,0,0.0,0.0,67,0.00,,,0.00,WUHU21623XXSP,2013-12-12 05:07:00,
2013-12-11 23:10:00,9.3,0.5,30.63,North,0,0.0,0.0,67,0.00,,,0.00,WUHU21623XXSP,2013-12-12 05:10:00,
2013-12-11 23:15:00,9.1,0.3,30.63,North,0,0.0,0.0,67,0.00,,,0.00,WUHU21623XXSP,2013-12-12 05:15:00,
2013-12-11 23:20:00,9.1,0.3,30.63,North,0,0.0,0.0,67,0.00,,,0.00,WUHU21623XXSP,2013-12-12 05:20:00,
2013-12-11 23:25:00,9.1,0.3,30.63,North,0,0.0,0.0,67,0.00,,,0.00,WUHU21623XXSP,2013-12-12 05:25:00,
2013-12-11 23:27:00,9.1,0.7,30.63,North,0,0.0,0.0,68,0.00,,,0.00,WUHU21623XXSP,2013-12-12 05:27:00,
2013-12-11 23:32:00,9.1,0.7,30.63,North,0,0.0,0.0,68,0.00,,,0.00,WUHU21623XXSP,2013-12-12 05:32:00,
2013-12-11 23:37:00,9.1,0.7,30.63,North,0,0.0,0.0,68,0.00,,,0.00,WUHU21623XXSP,2013-12-12 05:37:00,
2013-12-11 23:42:00,9.1,0.7,30.64,North,0,0.0,0.0,68,0.00,,,0.00,WUHU21623XXSP,2013-12-12 05:42:00,
2013-12-11 23:47:00,9.1,0.7,30.64,North,0,0.0,0.0,68,0.00,,,0.00,WUHU21623XXSP,2013-12-12 05:47:00,